This demonstration page uses our WeatherBlox Daily Observations layout. Learn more.

39.29038, -76.61219

Hourly Observations for December 19, 2017

Temp ( °F °C ) Dew Point ( °F °C ) Humidity (%) Winds ( mph kmh ) Pressure ( in mb ) Visibility ( mi km ) Precip ( " mm )
12:54 am 00:54 undefined 49 9.4 37 2.8 64 64 undefined N/A 29.97 1015 N/A 0 0
1:54 am 01:54 undefined 48 8.9 37 2.8 66 66 undefined N/A 29.97 1015 N/A 0 0
2:54 am 02:54 undefined 47 8.3 38 3.3 71 71 undefined N/A 29.97 1015 N/A 0 0
3:54 am 03:54 undefined 47 8.3 38 3.3 71 71 undefined N/A 29.97 1015 N/A 0 0
4:54 am 04:54 undefined 47 8.3 37 2.8 69 69 undefined N/A 29.94 1014 N/A 0 0
5:54 am 05:54 undefined 47 8.3 37 2.8 69 69 undefined N/A 29.94 1014 N/A 0 0
6:54 am 06:54 undefined 48 8.9 37 2.8 66 66 undefined N/A 29.94 1014 N/A 0 0
7:54 am 07:54 undefined 49 9.4 38 3.3 66 66 undefined N/A 29.97 1015 N/A 0 0
8:54 am 08:54 undefined 53 11.7 39 3.9 59 59 undefined N/A 30 1016 N/A 0 0
9:54 am 09:54 undefined 56 13.3 39 3.9 53 53 undefined N/A 30 1016 N/A 0 0
10:54 am 10:54 undefined 58 14.4 38 3.3 48 48 undefined N/A 29.97 1015 N/A 0 0
11:54 am 11:54 undefined 59 15 34 1.1 39 39 undefined N/A 29.94 1014 N/A 0 0
12:54 pm 12:54 undefined 60 15.6 34 1.1 38 38 undefined N/A 29.91 1013 N/A 0 0
1:54 pm 13:54 undefined 61 16.1 34 1.1 36 36 undefined N/A 29.88 1012 N/A 0 0
2:54 pm 14:54 undefined 60 15.6 34 1.1 38 38 undefined N/A 29.85 1011 N/A 0 0
3:54 pm 15:54 undefined 59 15 34 1.1 39 39 undefined N/A 29.85 1011 N/A 0 0
4:54 pm 16:54 undefined 57 13.9 36 2.2 45 45 undefined N/A 29.85 1011 N/A 0 0
5:54 pm 17:54 undefined 55 12.8 37 2.8 51 51 undefined N/A 29.85 1011 N/A 0 0
6:54 pm 18:54 undefined 54 12.2 37 2.8 53 53 undefined N/A 29.85 1011 N/A 0 0
7:54 pm 19:54 undefined 53 11.7 36 2.2 52 52 undefined N/A 29.83 1010 N/A 0 0
8:54 pm 20:54 undefined 52 11.1 36 2.2 55 55 undefined N/A 29.83 1010 N/A 0 0
9:54 pm 21:54 undefined 52 11.1 37 2.8 57 57 undefined N/A 29.83 1010 N/A 0 0
10:54 pm 22:54 undefined 51 10.6 37 2.8 59 59 undefined N/A 29.83 1010 N/A 0 0
11:54 pm 23:54 undefined 50 10 37 2.8 61 61 undefined N/A 29.83 1010 N/A 0 0

Powered by AerisWeather